Flag for Norway Weather past 2 weeks in Kolbotn, Norway

Now
45 °F

Sprinkles. Fog.


Feels Like: 33 °F
Forecast: 34 / 45 °F
Wind: 41 mph from Southwest

Location: Oslo / Fornebu

Current Time: Mar 5, 2015 at 9:30:02 AM

Latest Report: Mar 5, 2015 at 8:50 AM


Visibility: 2 mi

Pressure: 29.95 "Hg

Humidity: 100%

Dew point: 45 °F

Location of KolbotnLocation

Historic Weather in Kolbotn — Graph

°F

Kolbotn temperature yesterday

Maximum temperature yesterday: 43 °F (at 11:20 AM)
Minimum temperature yesterday: 37 °F (at 1:50 PM)
Average temperature yesterday: 41 °F

Past Weeks' High & Low Weather Summary

 TemperatureHumidityPressure
High48 °F (Feb 18, 8:50 AM)100% (Feb 18, 8:20 AM)30.15 "Hg (Feb 18, 8:20 AM)
Low34 °F (Feb 22, 6:50 AM)53% (Mar 2, 1:20 PM)28.44 "Hg (Mar 1, 12:20 PM)
Average42 °F79%29.24 "Hg
* Reported Feb 18 8:20 AM — Mar 5 8:20 AM, Kolbotn, Weather by CustomWeather, © 2015

Note: Actual official high and low records may vary slightly from our data, if they occured in-between our weather recording intervals... More about our weather records

Advertising

Kolbotn weather history for previous 24 hours

 ConditionsComfort  
Time TempWeatherWind HumidityBarometerVisibility
8:20 AM
Thu, Mar 5
45 °FLight rain. Fog.43 mph93%29.95 "Hg2 mi
7:50 AM45 °FLight rain. Fog.43 mph93%29.98 "Hg2 mi
7:20 AM43 °FLight rain. Fog.46 mph100%29.98 "Hg1 mi
6:50 AM43 °FLight rain. Fog.45 mph93%29.98 "Hg2 mi
6:20 AM43 °FLight rain. Passing clouds.44 mph93%30.01 "Hg4 mi
5:50 AM43 °FLight rain. Overcast.44 mph87%30.04 "HgN/A
5:20 AM41 °FLight rain. Overcast.39 mph93%30.07 "Hg4 mi
4:20 AM41 °FLight rain. Passing clouds.36 mph87%30.09 "Hg3 mi
3:50 AM41 °FLight rain. Overcast.32 mph87%30.09 "Hg4 mi
2:50 AM41 °FSprinkles. Overcast.25 mph81%30.15 "HgN/A
2:20 AM41 °FSprinkles. Partly cloudy.24 mph76%30.15 "HgN/A
1:50 AM41 °FLight rain. Passing clouds.28 mph76%30.15 "HgN/A
1:20 AM43 °FPartly cloudy.18 mph71%30.15 "HgN/A
12:50 AM43 °FPassing clouds.20 mph66%30.15 "HgN/A
12:20 AM43 °FPartly cloudy.18 mph66%30.15 "HgN/A
11:50 PM
Wed, Mar 4
43 °FPassing clouds.21 mph61%30.15 "HgN/A
11:20 PM43 °FPassing clouds.22 mph53%30.15 "HgN/A
10:20 PM43 °FPassing clouds.25 mph53%30.15 "HgN/A
9:50 PM43 °FOvercast.17 mph61%30.15 "HgN/A
9:20 PM41 °FPassing clouds.17 mph70%30.15 "HgN/A
8:50 PM41 °FPassing clouds.23 mph70%30.15 "HgN/A
8:20 PM41 °FPassing clouds.22 mph66%30.12 "HgN/A
7:50 PM41 °FPassing clouds.29 mph70%30.12 "HgN/A
7:20 PM41 °FPassing clouds.30 mph66%30.09 "HgN/A
6:50 PM41 °FPassing clouds.30 mph70%30.09 "HgN/A
6:20 PM41 °FPassing clouds.24 mph76%30.09 "HgN/A
5:50 PM41 °FScattered clouds.26 mph70%30.07 "HgN/A
5:20 PM39 °FPartly sunny.30 mph75%30.07 "HgN/A
4:50 PM39 °FSprinkles. Broken clouds.28 mph75%30.07 "HgN/A
4:20 PM39 °FScattered clouds.23 mph70%30.04 "HgN/A
3:50 PM41 °FScattered clouds.24 mph66%30.04 "HgN/A
3:20 PM39 °FBroken clouds.21 mph70%30.01 "HgN/A
2:50 PM39 °FPartly sunny.23 mph75%30.01 "HgN/A
2:20 PM37 °FPartly sunny.32 mph87%30.01 "HgN/A
1:50 PM37 °FSprinkles. Partly sunny.22 mph81%30.01 "HgN/A
1:20 PM39 °FRain showers. Partly sunny.26 mph75%29.98 "HgN/A
12:50 PM41 °FPartly sunny.21 mph66%29.95 "HgN/A
12:20 PM39 °FLight rain. Broken clouds.28 mph70%29.95 "HgN/A
11:50 AM43 °FPassing clouds.21 mph61%29.92 "HgN/A
11:20 AM43 °FBroken clouds.22 mph66%29.89 "HgN/A
10:50 AM41 °FPartly sunny.22 mph76%29.89 "HgN/A
10:20 AM41 °FQuite cool.20 mph70%29.86 "HgN/A
9:50 AM41 °FPassing clouds.15 mph76%29.83 "HgN/A
9:20 AM39 °FPassing clouds.15 mph81%29.83 "HgN/A
Weather by CustomWeather, © 2015

See weather overviewHow to use our weather pages